| time (UTC) | temp C | wind direction | speed KPH | gust KPH | rain 1hr cm | rain 24hr cm | rain mn cm | humidity % | barometer mb |
| 20260505011353 | 12 | 163 | 11.3 | 14.5 | 0.00 | 0.00 | 0.00 | 66 | 1013.2 |
| 20260505010849 | 12 | 183 | 6.4 | 16.1 | 0.00 | 0.00 | 0.00 | 65 | 1013.1 |
| 20260505010345 | 12 | 181 | 9.7 | 11.3 | 0.00 | 0.00 | 0.00 | 64 | 1012.9 |
| 20260505005841 | 12 | 152 | 6.4 | 11.3 | 0.00 | 0.00 | 0.00 | 63 | 1013.0 |
| 20260505005338 | 12 | 182 | 8.0 | 16.1 | 0.00 | 0.00 | 0.00 | 63 | 1013.0 |
| 20260505004836 | 12 | 20 | 1.6 | 16.1 | 0.00 | 0.00 | 0.00 | 62 | 1012.9 |
| 20260505004332 | 12 | 300 | 3.2 | 14.5 | 0.00 | 0.00 | 0.00 | 61 | 1012.4 |
| 20260505003830 | 12 | 149 | 14.5 | 16.1 | 0.00 | 0.00 | 0.00 | 60 | 1012.5 |
| 20260505003327 | 12 | 120 | 6.4 | 12.9 | 0.00 | 0.00 | 0.00 | 60 | 1012.3 |
| 20260505002822 | 12 | 217 | 11.3 | 14.5 | 0.00 | 0.00 | 0.00 | 59 | 1012.4 |
| 20260505002320 | 13 | 303 | 3.2 | 12.9 | 0.00 | 0.00 | 0.00 | 58 | 1012.4 |
| 20260505001818 | 13 | 265 | 19.3 | 24.1 | 0.00 | 0.00 | 0.00 | 58 | 1012.3 |
| 20260505001314 | 13 | 135 | 14.5 | 17.7 | 0.00 | 0.00 | 0.00 | 57 | 1012.0 |
| 20260505000812 | 13 | 108 | 6.4 | 24.1 | 0.00 | 0.00 | 0.00 | 57 | 1012.0 |
| 20260505000310 | 13 | 189 | 9.7 | 17.7 | 0.00 | 0.00 | 0.00 | 56 | 1011.8 |
| 20260504235806 | 13 | 59 | 3.2 | 14.5 | 0.00 | 0.00 | 0.00 | 55 | 1011.8 |
| 20260504235304 | 13 | 225 | 11.3 | 14.5 | 0.00 | 0.00 | 0.00 | 54 | 1012.0 |
| 20260504234800 | 14 | 263 | 11.3 | 29.0 | 0.00 | 0.00 | 0.00 | 53 | 1011.8 |
| 20260504234257 | 14 | 163 | 19.3 | 24.1 | 0.00 | 0.00 | 0.00 | 52 | 1011.8 |
| 20260504233753 | 14 | 131 | 12.9 | 20.9 | 0.00 | 0.00 | 0.00 | 52 | 1011.8 |
| 20260504233249 | 14 | 140 | 16.1 | 25.7 | 0.00 | 0.00 | 0.00 | 51 | 1011.7 |
| 20260504232746 | 15 | 204 | 12.9 | 14.5 | 0.00 | 0.00 | 0.00 | 50 | 1011.8 |
| 20260504232243 | 15 | 172 | 8.0 | 14.5 | 0.00 | 0.00 | 0.00 | 49 | 1011.7 |
| 20260504231740 | 15 | 159 | 9.7 | 24.1 | 0.00 | 0.00 | 0.00 | 48 | 1011.4 |
| 20260504231237 | 15 | 233 | 4.8 | 12.9 | 0.00 | 0.00 | 0.00 | 48 | 1011.4 |
| 20260504230732 | 15 | 354 | 3.2 | 16.1 | 0.00 | 0.00 | 0.00 | 47 | 1011.3 |
| 20260504230231 | 16 | 28 | 4.8 | 17.7 | 0.00 | 0.00 | 0.00 | 47 | 1011.4 |
| 20260504225730 | 16 | 148 | 11.3 | 22.5 | 0.00 | 0.00 | 0.00 | 46 | 1011.3 |
| 20260504225225 | 16 | 266 | 9.7 | 16.1 | 0.00 | 0.00 | 0.00 | 45 | 1011.3 |
| 20260504224723 | 16 | 194 | 14.5 | 22.5 | 0.00 | 0.00 | 0.00 | 44 | 1011.1 |
| 20260504224220 | 16 | 233 | 14.5 | 24.1 | 0.00 | 0.00 | 0.00 | 44 | 1011.3 |
| 20260504223716 | 16 | 141 | 17.7 | 30.6 | 0.00 | 0.00 | 0.00 | 45 | 1011.1 |
| 20260504223212 | 16 | 123 | 3.2 | 11.3 | 0.00 | 0.00 | 0.00 | 45 | 1011.1 |
| 20260504222709 | 16 | 166 | 11.3 | 25.7 | 0.00 | 0.00 | 0.00 | 45 | 1011.1 |
| 20260504222206 | 16 | 178 | 17.7 | 24.1 | 0.00 | 0.00 | 0.00 | 45 | 1010.9 |
| 20260504221703 | 16 | 225 | 9.7 | 20.9 | 0.00 | 0.00 | 0.00 | 45 | 1011.0 |
| 20260504221200 | 17 | 93 | 11.3 | 27.4 | 0.00 | 0.00 | 0.00 | 44 | 1011.0 |
| 20260504220656 | 17 | 193 | 20.9 | 37.0 | 0.00 | 0.00 | 0.00 | 43 | 1010.9 |
| 20260504220154 | 17 | 38 | 6.4 | 24.1 | 0.00 | 0.00 | 0.00 | 44 | 1011.2 |
| 20260504215650 | 17 | 110 | 17.7 | 25.7 | 0.00 | 0.00 | 0.00 | 43 | 1010.9 |
| 20260504215148 | 17 | 91 | 11.3 | 35.4 | 0.00 | 0.00 | 0.00 | 43 | 1011.1 |
| 20260504214643 | 17 | 138 | 11.3 | 30.6 | 0.00 | 0.00 | 0.00 | 42 | 1010.7 |
| 20260504214140 | 18 | 130 | 11.3 | 14.5 | 0.00 | 0.00 | 0.00 | 40 | 1010.8 |
| 20260504213637 | 18 | 136 | 17.7 | 35.4 | 0.00 | 0.00 | 0.00 | 40 | 1011.0 |
| 20260504213133 | 18 | 147 | 16.1 | 24.1 | 0.00 | 0.00 | 0.00 | 39 | 1010.9 |
| 20260504212630 | 18 | 203 | 22.5 | 27.4 | 0.00 | 0.00 | 0.00 | 39 | 1010.7 |
| 20260504212127 | 18 | 45 | 3.2 | 20.9 | 0.00 | 0.00 | 0.00 | 39 | 1010.9 |
| 20260504211625 | 18 | 10 | 1.6 | 27.4 | 0.00 | 0.00 | 0.00 | 40 | 1010.9 |
| 20260504211120 | 18 | 192 | 3.2 | 29.0 | 0.00 | 0.00 | 0.00 | 39 | 1010.6 |
| 20260504210619 | 18 | 143 | 16.1 | 33.8 | 0.00 | 0.00 | 0.00 | 38 | 1010.7 |
| 20260504210114 | 19 | 177 | 9.7 | 25.7 | 0.00 | 0.00 | 0.00 | 37 | 1010.6 |
| 20260504205612 | 19 | 164 | 1.6 | 9.7 | 0.00 | 0.00 | 0.00 | 38 | 1010.6 |
| 20260504205110 | 18 | 357 | 3.2 | 22.5 | 0.00 | 0.00 | 0.00 | 38 | 1010.6 |
| 20260504204608 | 18 | 167 | 3.2 | 24.1 | 0.00 | 0.00 | 0.00 | 38 | 1010.5 |
| 20260504204107 | 18 | 176 | 14.5 | 24.1 | 0.00 | 0.00 | 0.00 | 36 | 1010.7 |
| 20260504203605 | 18 | 137 | 17.7 | 37.0 | 0.00 | 0.00 | 0.00 | 37 | 1010.7 |
| 20260504203102 | 18 | 142 | 8.0 | 24.1 | 0.00 | 0.00 | 0.00 | 37 | 1010.2 |
| 20260504202557 | 18 | 178 | 9.7 | 35.4 | 0.00 | 0.00 | 0.00 | 36 | 1010.8 |
| 20260504202054 | 18 | 264 | 9.7 | 20.9 | 0.00 | 0.00 | 0.00 | 35 | 1010.5 |
| 20260504201551 | 19 | 57 | 14.5 | 22.5 | 0.00 | 0.00 | 0.00 | 35 | 1010.6 |
| 20260504201049 | 18 | 328 | 4.8 | 12.9 | 0.00 | 0.00 | 0.00 | 35 | 1010.5 |
| 20260504200545 | 19 | 324 | 4.8 | 20.9 | 0.00 | 0.00 | 0.00 | 36 | 1010.6 |
| 20260504200042 | 18 | 234 | 17.7 | 25.7 | 0.00 | 0.00 | 0.00 | 32 | 1010.6 |
| 20260504195538 | 19 | 212 | 22.5 | 30.6 | 0.00 | 0.00 | 0.00 | 33 | 1010.8 |
| 20260504195035 | 19 | 120 | 9.7 | 22.5 | 0.00 | 0.00 | 0.00 | 34 | 1010.8 |
| 20260504194531 | 19 | 103 | 3.2 | 17.7 | 0.00 | 0.00 | 0.00 | 32 | 1010.5 |
| 20260504194026 | 19 | 178 | 14.5 | 29.0 | 0.00 | 0.00 | 0.00 | 32 | 1010.8 |
| 20260504193523 | 19 | 166 | 12.9 | 22.5 | 0.00 | 0.00 | 0.00 | 32 | 1010.8 |
| 20260504193022 | 19 | 187 | 14.5 | 30.6 | 0.00 | 0.00 | 0.00 | 32 | 1010.7 |
| 20260504192520 | 19 | 25 | 3.2 | 29.0 | 0.00 | 0.00 | 0.00 | 33 | 1011.0 |
| 20260504192018 | 19 | 143 | 4.8 | 22.5 | 0.00 | 0.00 | 0.00 | 32 | 1010.5 |
| 20260504191516 | 18 | 176 | 19.3 | 24.1 | 0.00 | 0.00 | 0.00 | 33 | 1010.8 |
| 20260504191012 | 19 | 144 | 3.2 | 27.4 | 0.00 | 0.00 | 0.00 | 33 | 1010.8 |
| 20260504190508 | 19 | 242 | 12.9 | 20.9 | 0.00 | 0.00 | 0.00 | 32 | 1010.7 |
| 20260504190004 | 19 | 308 | 14.5 | 27.4 | 0.00 | 0.00 | 0.00 | 31 | 1010.8 |
| 20260504185501 | 19 | 300 | 14.5 | 20.9 | 0.00 | 0.00 | 0.00 | 31 | 1011.0 |
| 20260504184957 | 18 | 208 | 9.7 | 20.9 | 0.00 | 0.00 | 0.00 | 32 | 1010.8 |
| 20260504184453 | 19 | 172 | 14.5 | 33.8 | 0.00 | 0.00 | 0.00 | 30 | 1010.9 |
| 20260504183949 | 19 | 194 | 9.7 | 25.7 | 0.00 | 0.00 | 0.00 | 32 | 1011.1 |
| 20260504183446 | 19 | 171 | 9.7 | 20.9 | 0.00 | 0.00 | 0.00 | 30 | 1011.1 |
| 20260504182944 | 19 | 212 | 9.7 | 14.5 | 0.00 | 0.00 | 0.00 | 32 | 1011.0 |
| 20260504182440 | 18 | 188 | 11.3 | 22.5 | 0.00 | 0.00 | 0.00 | 31 | 1011.1 |
| 20260504181938 | 19 | 220 | 20.9 | 27.4 | 0.00 | 0.00 | 0.00 | 31 | 1011.3 |
| 20260504181435 | 18 | 317 | 8.0 | 27.4 | 0.00 | 0.00 | 0.00 | 33 | 1011.4 |
| 20260504180934 | 18 | 230 | 12.9 | 20.9 | 0.00 | 0.00 | 0.00 | 31 | 1011.2 |
| 20260504180432 | 19 | 196 | 11.3 | 24.1 | 0.00 | 0.00 | 0.00 | 31 | 1011.0 |
| 20260504175930 | 18 | 197 | 19.3 | 29.0 | 0.00 | 0.00 | 0.00 | 31 | 1011.5 |
| 20260504175427 | 18 | 141 | 14.5 | 27.4 | 0.00 | 0.00 | 0.00 | 33 | 1011.6 |
| 20260504174925 | 18 | 215 | 9.7 | 25.7 | 0.00 | 0.00 | 0.00 | 34 | 1011.5 |
| 20260504174422 | 18 | 224 | 11.3 | 30.6 | 0.00 | 0.00 | 0.00 | 33 | 1011.4 |
| 20260504173919 | 18 | 218 | 17.7 | 27.4 | 0.00 | 0.00 | 0.00 | 32 | 1011.5 |
| 20260504173415 | 18 | 169 | 12.9 | 22.5 | 0.00 | 0.00 | 0.00 | 31 | 1011.3 |
| 20260504172913 | 18 | 314 | 3.2 | 11.3 | 0.00 | 0.00 | 0.00 | 36 | 1011.2 |
| 20260504172409 | 17 | 201 | 17.7 | 20.9 | 0.00 | 0.00 | 0.00 | 34 | 1011.1 |
| 20260504171905 | 18 | 272 | 19.3 | 29.0 | 0.00 | 0.00 | 0.00 | 31 | 1011.5 |
| 20260504171403 | 18 | 205 | 11.3 | 37.0 | 0.00 | 0.00 | 0.00 | 32 | 1011.2 |
| 20260504170859 | 18 | 145 | 16.1 | 25.7 | 0.00 | 0.00 | 0.00 | 31 | 1011.3 |
| 20260504170356 | 18 | 148 | 19.3 | 30.6 | 0.00 | 0.00 | 0.00 | 31 | 1011.3 |
| 20260504160315 | 17 | 186 | 16.1 | 27.4 | 0.00 | 0.00 | 0.00 | 33 | 1012.2 |
| 20260504150739 | 17 | 165 | 25.7 | 29.0 | 0.00 | 0.00 | 0.00 | 33 | 1012.4 |
| 20260504150236 | 17 | 216 | 11.3 | 16.1 | 0.00 | 0.00 | 0.00 | 34 | 1012.6 |
| 20260504141206 | 16 | 198 | 9.7 | 17.7 | 0.00 | 0.00 | 0.00 | 37 | 1013.2 |
| 20260504140703 | 15 | 2 | 6.4 | 14.5 | 0.00 | 0.00 | 0.00 | 39 | 1013.2 |
| 20260504140158 | 15 | 193 | 6.4 | 24.1 | 0.00 | 0.00 | 0.00 | 40 | 1013.2 |
| 20260504130626 | 13 | 195 | 9.7 | 14.5 | 0.00 | 0.00 | 0.00 | 45 | 1013.7 |
| 20260504130123 | 12 | 260 | 6.4 | 16.1 | 0.00 | 0.00 | 0.00 | 45 | 1013.9 |
| 20260504110514 | 7 | 235 | 8.0 | 12.9 | 0.00 | 0.00 | 0.00 | 56 | 1013.9 |
| 20260504100436 | 5 | 317 | 3.2 | 4.8 | 0.00 | 0.00 | 0.00 | 62 | 1013.9 |
| 20260504081829 | 5 | 16 | 0.0 | 3.2 | 0.00 | 0.00 | 0.00 | 61 | 1013.1 |
| 20260504081326 | 5 | 32 | 0.0 | 3.2 | 0.00 | 0.00 | 0.00 | 61 | 1013.2 |
| 20260504080822 | 5 | 41 | 1.6 | 1.6 | 0.00 | 0.00 | 0.00 | 61 | 1013.3 |
| 20260504080320 | 5 | 89 | 1.6 | 4.8 | 0.00 | 0.00 | 0.00 | 59 | 1013.4 |
| 20260504070246 | 6 | 29 | 0.0 | 6.4 | 0.00 | 0.00 | 0.00 | 57 | 1013.1 |
| 20260504060207 | 5 | 18 | 0.0 | 1.6 | 0.00 | 0.00 | 0.00 | 56 | 1013.0 |
| 20260504050635 | 5 | 6 | 1.6 | 1.6 | 0.00 | 0.00 | 0.00 | 54 | 1013.3 |
| 20260504050132 | 5 | 19 | 0.0 | 1.6 | 0.00 | 0.00 | 0.00 | 55 | 1013.1 |
| 20260504045629 | 5 | 22 | 0.0 | 1.6 | 0.00 | 0.00 | 0.00 | 55 | 1013.4 |
| 20260504045129 | 5 | 17 | 0.0 | 1.6 | 0.00 | 0.00 | 0.00 | 54 | 1013.5 |
| 20260504044627 | 5 | 16 | 0.0 | 3.2 | 0.00 | 0.00 | 0.00 | 56 | 1013.5 |
| 20260504044124 | 5 | 23 | 0.0 | 0.0 | 0.00 | 0.00 | 0.00 | 56 | 1013.6 |
| 20260504043621 | 5 | 28 | 0.0 | 1.6 | 0.00 | 0.00 | 0.00 | 54 | 1013.5 |
| 20260504043118 | 5 | 10 | 0.0 | 3.2 | 0.00 | 0.00 | 0.00 | 55 | 1013.4 |
| 20260504042615 | 5 | 24 | 0.0 | 1.6 | 0.00 | 0.00 | 0.00 | 55 | 1013.3 |
| 20260504042112 | 5 | 22 | 0.0 | 0.0 | 0.00 | 0.00 | 0.00 | 54 | 1013.4 |
| 20260504041607 | 5 | 23 | 0.0 | 0.0 | 0.00 | 0.00 | 0.00 | 55 | 1013.4 |
| 20260504041104 | 5 | 20 | 0.0 | 0.0 | 0.00 | 0.00 | 0.00 | 53 | 1013.3 |
| 20260504040602 | 5 | 12 | 0.0 | 1.6 | 0.00 | 0.00 | 0.00 | 55 | 1013.3 |
| 20260504040058 | 5 | 17 | 0.0 | 1.6 | 0.00 | 0.00 | 0.00 | 55 | 1013.3 |
| 20260504035555 | 5 | 17 | 0.0 | 0.0 | 0.00 | 0.00 | 0.00 | 56 | 1013.2 |
| 20260504035051 | 5 | 19 | 0.0 | 1.6 | 0.00 | 0.00 | 0.00 | 54 | 1013.0 |
| 20260504034549 | 5 | 3 | 3.2 | 3.2 | 0.00 | 0.00 | 0.00 | 56 | 1013.0 |
| 20260504034046 | 4 | 25 | 0.0 | 1.6 | 0.00 | 0.00 | 0.00 | 59 | 1012.9 |
| 20260504033544 | 4 | 16 | 1.6 | 1.6 | 0.00 | 0.00 | 0.00 | 60 | 1013.1 |
| 20260504033041 | 3 | 23 | 0.0 | 1.6 | 0.00 | 0.00 | 0.00 | 60 | 1013.1 |
| 20260504032538 | 3 | 18 | 0.0 | 0.0 | 0.00 | 0.00 | 0.00 | 64 | 1013.1 |
| 20260504032035 | 3 | 21 | 0.0 | 0.0 | 0.00 | 0.00 | 0.00 | 63 | 1013.1 |
| 20260504031532 | 3 | 14 | 1.6 | 6.4 | 0.00 | 0.00 | 0.00 | 64 | 1012.9 |
| 20260504031028 | 3 | 20 | 1.6 | 1.6 | 0.00 | 0.00 | 0.00 | 66 | 1013.0 |
| 20260504030525 | 3 | 6 | 1.6 | 1.6 | 0.00 | 0.00 | 0.00 | 64 | 1012.9 |
| 20260504030021 | 3 | 6 | 0.0 | 0.0 | 0.00 | 0.00 | 0.00 | 65 | 1012.8 |
| 20260504025518 | 3 | 6 | 1.6 | 1.6 | 0.00 | 0.00 | 0.00 | 65 | 1012.6 |
| 20260504025015 | 3 | 6 | 0.0 | 1.6 | 0.00 | 0.00 | 0.00 | 62 | 1012.8 |
| 20260504024512 | 3 | 6 | 0.0 | 0.0 | 0.00 | 0.00 | 0.00 | 63 | 1012.6 |
| 20260504024009 | 3 | 6 | 0.0 | 0.0 | 0.00 | 0.00 | 0.00 | 62 | 1012.8 |
| 20260504023506 | 3 | 6 | 0.0 | 0.0 | 0.00 | 0.00 | 0.00 | 61 | 1012.6 |
| 20260504023001 | 3 | 6 | 0.0 | 0.0 | 0.00 | 0.00 | 0.00 | 61 | 1012.6 |
| 20260504022457 | 3 | 6 | 0.0 | 0.0 | 0.00 | 0.00 | 0.00 | 65 | 1012.8 |
| 20260504021954 | 3 | 6 | 0.0 | 0.0 | 0.00 | 0.00 | 0.00 | 62 | 1012.5 |
| 20260504021452 | 3 | 6 | 0.0 | 0.0 | 0.00 | 0.00 | 0.00 | 63 | 1012.5 |
| 20260504020949 | 3 | 6 | 0.0 | 0.0 | 0.00 | 0.00 | 0.00 | 64 | 1012.4 |
| 20260504020445 | 3 | 6 | 0.0 | 0.0 | 0.00 | 0.00 | 0.00 | 64 | 1012.3 |
| 20260504015942 | 3 | 6 | 0.0 | 1.6 | 0.00 | 0.00 | 0.00 | 65 | 1012.5 |
| 20260504015438 | 3 | 6 | 0.0 | 1.6 | 0.00 | 0.00 | 0.00 | 65 | 1012.4 |
| 20260504014934 | 3 | 6 | 1.6 | 1.6 | 0.00 | 0.00 | 0.00 | 65 | 1012.4 |
| 20260504014430 | 3 | 5 | 1.6 | 1.6 | 0.00 | 0.00 | 0.00 | 64 | 1012.2 |
| 20260504013927 | 3 | 7 | 1.6 | 1.6 | 0.00 | 0.00 | 0.00 | 63 | 1012.2 |
| 20260504013426 | 3 | 1 | 0.0 | 0.0 | 0.00 | 0.00 | 0.00 | 62 | 1012.3 |
| 20260504012927 | 3 | 5 | 0.0 | 0.0 | 0.00 | 0.00 | 0.00 | 62 | 1012.3 |
| 20260504012425 | 3 | 2 | 0.0 | 0.0 | 0.00 | 0.00 | 0.00 | 61 | 1012.3 |
| 20260504011922 | 4 | 6 | 0.0 | 0.0 | 0.00 | 0.00 | 0.00 | 61 | 1012.2 |